Location: ??
(34.9170°N, 135.5016°E)
Time: 00:37:01
(UTC+00:00)

RS-15 - Pass Details

Date: 27 April 2021
Orbit: 1888 x 2157 km, 64.8° (Epoch: 12 May)

Event Time Altitude Azimuth Distance (km) Brightness Sun altitude
Rises 10:41:51 0° 261° (W) 5,307 11.3 -12.6°
Reaches altitude 10° 10:46:10 10° 276° (W) 4,343 11.0 -13.3°
Maximum altitude 10:54:36 24° 326° (NW) 3,435 10.1 -14.9°
Drops below altitude 10° 11:03:24 10° 16° (NNE) 4,513 10.1 -16.4°
Sets 11:08:04 0° 30° (NNE) 5,561 10.4 -17.2°
